This demonstration page uses our WeatherBlox Daily Observations layout. Learn more.

Left ArrowRight Arrow

34.02893, -84.19858

Hourly Observations for March 8, 2016

Temp ( °F °C ) Dew Point ( °F °C ) Humidity (%) Winds ( mph kmh ) Pressure ( in mb ) Visibility ( mi km ) Precip ( " mm )
12:53 am 00:53 Clear 47 8.3 42 5.6 83 83 Calm 30.24 1024 10 16 0.00 0.00
1:53 am 01:53 Clear 46 7.8 41 5 83 83 Calm 30.24 1024 10 16 0.00 0.00
2:53 am 02:53 Clear 46 7.8 42 5.6 86 86 Calm 30.24 1024 10 16 0.00 0.00
3:53 am 03:53 Clear 50 10 46 7.8 86 86 SSE 3 6 30.22 1024 10 16 0.00 0.00
4:53 am 04:53 Clear 46 7.8 44 6.7 93 93 Calm 30.24 1024 10 16 0.00 0.00
5:53 am 05:53 Clear 45 7.2 43 6.1 93 93 Calm 30.24 1024 10 16 0.00 0.00
6:53 am 06:53 Clear 44 6.7 43 6.1 96 96 Calm 30.27 1025 9 14 0.00 0.00
7:53 am 07:53 Sunny with Mist and Fog 49 9.4 49 9.4 100 100 Calm 30.29 1026 6 10 0.00 0.00
8:53 am 08:53 Sunny 56 13.3 51 10.6 84 84 SSE 5 7 30.30 1026 10 16 0.00 0.00
9:53 am 09:53 Sunny 61 16.1 52 11.1 72 72 VRB 3 6 30.30 1026 10 16 0.00 0.00
10:53 am 10:53 Sunny 64 17.8 52 11.1 65 65 SW 5 7 30.32 1027 10 16 0.00 0.00
11:53 am 11:53 Sunny 67 19.4 51 10.6 57 57 Calm 30.30 1026 10 16 0.00 0.00
12:53 pm 12:53 Sunny 70 21.1 52 11.1 53 53 S 9 15 30.26 1025 10 16 0.00 0.00
1:53 pm 13:53 Mostly Sunny 71 21.7 52 11.1 51 51 VRB 5 7 30.22 1024 10 16 0.00 0.00
2:53 pm 14:53 Mostly Sunny 73 22.8 51 10.6 46 46 SSE 8 13 30.19 1022 10 16 0.00 0.00
3:53 pm 15:53 Mostly Sunny 73 22.8 52 11.1 48 48 SSE 7 11 30.17 1022 10 16 0.00 0.00
4:53 pm 16:53 Sunny 72 22.2 51 10.6 48 48 SSW 10 17 30.17 1022 10 16 0.00 0.00
5:53 pm 17:53 Sunny 71 21.7 50 10 47 47 SSE 8 13 30.15 1021 10 16 0.00 0.00
6:53 pm 18:53 Clear 68 20 49 9.4 51 51 SSE 5 7 30.15 1021 10 16 0.00 0.00
7:53 pm 19:53 Clear 66 18.9 50 10 56 56 ESE 3 6 30.15 1021 10 16 0.00 0.00
8:53 pm 20:53 Clear 63 17.2 50 10 63 63 SE 3 6 30.17 1022 10 16 0.00 0.00
9:53 pm 21:53 Clear 61 16.1 50 10 67 67 Calm 30.18 1022 10 16 0.00 0.00
10:53 pm 22:53 Clear 60 15.6 50 10 70 70 Calm 30.16 1021 10 16 0.00 0.00
11:53 pm 23:53 Clear 57 13.9 50 10 78 78 Calm 30.16 1022 10 16 0.00 0.00

Powered by AerisWeather